Date_Time,Julian_Date,Latitude,Longitude,Instrument_Depth,Water_Temperature
(yyyy-mm-dd hh:mn:ss UTC),(JD),(+ deg. North),(+ deg. East),(m),(deg. C)
1983-03-11 18:30:00 UTC,2445405.270833,29.6650,-93.4789,0037,15.4000
1983-03-11 19:00:00 UTC,2445405.291667,29.6650,-93.4789,0037,15.5000
1983-03-11 19:30:00 UTC,2445405.312500,29.6650,-93.4789,0037,15.5000
1983-03-11 20:00:00 UTC,2445405.333333,29.6650,-93.4789,0037,15.6000
1983-03-11 20:30:00 UTC,2445405.354167,29.6650,-93.4789,0037,15.6000
1983-03-11 21:00:00 UTC,2445405.375000,29.6650,-93.4789,0037,15.6000
1983-03-11 21:30:00 UTC,2445405.395833,29.6650,-93.4789,0037,15.6000
1983-03-11 22:00:00 UTC,2445405.416667,29.6650,-93.4789,0037,15.6000
1983-03-11 22:30:00 UTC,2445405.437500,29.6650,-93.4789,0037,15.7000
1983-03-11 23:00:00 UTC,2445405.458333,29.6650,-93.4789,0037,15.7000
1983-03-11 23:30:00 UTC,2445405.479167,29.6650,-93.4789,0037,15.7000
1983-03-12 00:00:00 UTC,2445405.500000,29.6650,-93.4789,0037,15.5000
1983-03-12 00:30:00 UTC,2445405.520833,29.6650,-93.4789,0037,15.5000
1983-03-12 01:00:00 UTC,2445405.541667,29.6650,-93.4789,0037,15.5000
1983-03-12 01:30:00 UTC,2445405.562500,29.6650,-93.4789,0037,15.5000
1983-03-12 02:00:00 UTC,2445405.583333,29.6650,-93.4789,0037,15.5000
1983-03-12 02:30:00 UTC,2445405.604167,29.6650,-93.4789,0037,15.6000
1983-03-12 03:00:00 UTC,2445405.625000,29.6650,-93.4789,0037,15.6000
1983-03-12 03:30:00 UTC,2445405.645833,29.6650,-93.4789,0037,15.6000
1983-03-12 04:00:00 UTC,2445405.666667,29.6650,-93.4789,0037,15.6000
1983-03-12 04:30:00 UTC,2445405.687500,29.6650,-93.4789,0037,15.6000
1983-03-12 05:00:00 UTC,2445405.708333,29.6650,-93.4789,0037,15.6000
1983-03-12 05:30:00 UTC,2445405.729167,29.6650,-93.4789,0037,15.6000
1983-03-12 06:00:00 UTC,2445405.750000,29.6650,-93.4789,0037,15.6000
1983-03-12 06:30:00 UTC,2445405.770833,29.6650,-93.4789,0037,15.6000
1983-03-12 07:00:00 UTC,2445405.791667,29.6650,-93.4789,0037,15.6000
1983-03-12 07:30:00 UTC,2445405.812500,29.6650,-93.4789,0037,15.5000
1983-03-12 08:00:00 UTC,2445405.833333,29.6650,-93.4789,0037,15.5000
1983-03-12 08:30:00 UTC,2445405.854167,29.6650,-93.4789,0037,15.5000
1983-03-12 09:00:00 UTC,2445405.875000,29.6650,-93.4789,0037,15.6000
1983-03-12 09:30:00 UTC,2445405.895833,29.6650,-93.4789,0037,15.6000
1983-03-12 10:00:00 UTC,2445405.916667,29.6650,-93.4789,0037,15.6000
1983-03-12 10:30:00 UTC,2445405.937500,29.6650,-93.4789,0037,15.5000
1983-03-12 11:00:00 UTC,2445405.958333,29.6650,-93.4789,0037,15.5000
1983-03-12 11:30:00 UTC,2445405.979167,29.6650,-93.4789,0037,15.5000
1983-03-12 12:00:00 UTC,2445406.000000,29.6650,-93.4789,0037,15.5000
1983-03-12 12:30:00 UTC,2445406.020833,29.6650,-93.4789,0037,15.4000
1983-03-12 13:00:00 UTC,2445406.041667,29.6650,-93.4789,0037,15.3000
1983-03-12 13:30:00 UTC,2445406.062500,29.6650,-93.4789,0037,15.2000
1983-03-12 14:00:00 UTC,2445406.083333,29.6650,-93.4789,0037,15.3000
1983-03-12 14:30:00 UTC,2445406.104167,29.6650,-93.4789,0037,15.3000
1983-03-12 15:00:00 UTC,2445406.125000,29.6650,-93.4789,0037,15.3000
1983-03-12 15:30:00 UTC,2445406.145833,29.6650,-93.4789,0037,15.3000
1983-03-12 16:00:00 UTC,2445406.166667,29.6650,-93.4789,0037,15.3000
1983-03-12 16:30:00 UTC,2445406.187500,29.6650,-93.4789,0037,15.3000
1983-03-12 17:00:00 UTC,2445406.208333,29.6650,-93.4789,0037,15.3000
1983-03-12 17:30:00 UTC,2445406.229167,29.6650,-93.4789,0037,15.3000
1983-03-12 18:00:00 UTC,2445406.250000,29.6650,-93.4789,0037,15.3000
1983-03-12 18:30:00 UTC,2445406.270833,29.6650,-93.4789,0037,15.3000
1983-03-12 19:00:00 UTC,2445406.291667,29.6650,-93.4789,0037,15.3000
1983-03-12 19:30:00 UTC,2445406.312500,29.6650,-93.4789,0037,15.3000
1983-03-12 20:00:00 UTC,2445406.333333,29.6650,-93.4789,0037,15.3000
1983-03-12 20:30:00 UTC,2445406.354167,29.6650,-93.4789,0037,15.3000
1983-03-12 21:00:00 UTC,2445406.375000,29.6650,-93.4789,0037,15.3000
1983-03-12 21:30:00 UTC,2445406.395833,29.6650,-93.4789,0037,15.3000
1983-03-12 22:00:00 UTC,2445406.416667,29.6650,-93.4789,0037,15.3000
1983-03-12 22:30:00 UTC,2445406.437500,29.6650,-93.4789,0037,15.3000
1983-03-12 23:00:00 UTC,2445406.458333,29.6650,-93.4789,0037,15.4000
1983-03-12 23:30:00 UTC,2445406.479167,29.6650,-93.4789,0037,15.4000
1983-03-13 00:00:00 UTC,2445406.500000,29.6650,-93.4789,0037,15.4000
1983-03-13 00:30:00 UTC,2445406.520833,29.6650,-93.4789,0037,15.4000
1983-03-13 01:00:00 UTC,2445406.541667,29.6650,-93.4789,0037,15.4000
1983-03-13 01:30:00 UTC,2445406.562500,29.6650,-93.4789,0037,15.4000
1983-03-13 02:00:00 UTC,2445406.583333,29.6650,-93.4789,0037,15.4000
1983-03-13 02:30:00 UTC,2445406.604167,29.6650,-93.4789,0037,15.4000
1983-03-13 03:00:00 UTC,2445406.625000,29.6650,-93.4789,0037,15.4000
1983-03-13 03:30:00 UTC,2445406.645833,29.6650,-93.4789,0037,15.4000
1983-03-13 04:00:00 UTC,2445406.666667,29.6650,-93.4789,0037,15.4000
1983-03-13 04:30:00 UTC,2445406.687500,29.6650,-93.4789,0037,15.4000
1983-03-13 05:00:00 UTC,2445406.708333,29.6650,-93.4789,0037,15.5000
1983-03-13 05:30:00 UTC,2445406.729167,29.6650,-93.4789,0037,15.5000
1983-03-13 06:00:00 UTC,2445406.750000,29.6650,-93.4789,0037,15.5000
1983-03-13 06:30:00 UTC,2445406.770833,29.6650,-93.4789,0037,15.5000
1983-03-13 07:00:00 UTC,2445406.791667,29.6650,-93.4789,0037,15.5000
1983-03-13 07:30:00 UTC,2445406.812500,29.6650,-93.4789,0037,15.5000
1983-03-13 08:00:00 UTC,2445406.833333,29.6650,-93.4789,0037,15.5000
1983-03-13 08:30:00 UTC,2445406.854167,29.6650,-93.4789,0037,15.5000
1983-03-13 09:00:00 UTC,2445406.875000,29.6650,-93.4789,0037,15.5000
1983-03-13 09:30:00 UTC,2445406.895833,29.6650,-93.4789,0037,15.5000
1983-03-13 10:00:00 UTC,2445406.916667,29.6650,-93.4789,0037,15.5000
1983-03-13 10:30:00 UTC,2445406.937500,29.6650,-93.4789,0037,15.5000
1983-03-13 11:00:00 UTC,2445406.958333,29.6650,-93.4789,0037,15.4000
1983-03-13 11:30:00 UTC,2445406.979167,29.6650,-93.4789,0037,15.4000
1983-03-13 12:00:00 UTC,2445407.000000,29.6650,-93.4789,0037,15.4000
1983-03-13 12:30:00 UTC,2445407.020833,29.6650,-93.4789,0037,15.4000
1983-03-13 13:00:00 UTC,2445407.041667,29.6650,-93.4789,0037,15.4000
1983-03-13 13:30:00 UTC,2445407.062500,29.6650,-93.4789,0037,15.4000
1983-03-13 14:00:00 UTC,2445407.083333,29.6650,-93.4789,0037,15.4000
1983-03-13 14:30:00 UTC,2445407.104167,29.6650,-93.4789,0037,15.4000
1983-03-13 15:00:00 UTC,2445407.125000,29.6650,-93.4789,0037,15.4000
1983-03-13 15:30:00 UTC,2445407.145833,29.6650,-93.4789,0037,15.4000
1983-03-13 16:00:00 UTC,2445407.166667,29.6650,-93.4789,0037,15.4000
1983-03-13 16:30:00 UTC,2445407.187500,29.6650,-93.4789,0037,15.4000
1983-03-13 17:00:00 UTC,2445407.208333,29.6650,-93.4789,0037,15.4000
1983-03-13 17:30:00 UTC,2445407.229167,29.6650,-93.4789,0037,15.4000
1983-03-13 18:00:00 UTC,2445407.250000,29.6650,-93.4789,0037,15.4000
1983-03-13 18:30:00 UTC,2445407.270833,29.6650,-93.4789,0037,15.5000
1983-03-13 19:00:00 UTC,2445407.291667,29.6650,-93.4789,0037,15.5000
1983-03-13 19:30:00 UTC,2445407.312500,29.6650,-93.4789,0037,15.4000
1983-03-13 20:00:00 UTC,2445407.333333,29.6650,-93.4789,0037,15.4000
1983-03-13 20:30:00 UTC,2445407.354167,29.6650,-93.4789,0037,15.4000
1983-03-13 21:00:00 UTC,2445407.375000,29.6650,-93.4789,0037,15.5000
1983-03-13 21:30:00 UTC,2445407.395833,29.6650,-93.4789,0037,15.5000
1983-03-13 22:00:00 UTC,2445407.416667,29.6650,-93.4789,0037,15.6000
1983-03-13 22:30:00 UTC,2445407.437500,29.6650,-93.4789,0037,15.7000
1983-03-13 23:00:00 UTC,2445407.458333,29.6650,-93.4789,0037,15.7000
1983-03-13 23:30:00 UTC,2445407.479167,29.6650,-93.4789,0037,15.7000
1983-03-14 00:00:00 UTC,2445407.500000,29.6650,-93.4789,0037,15.7000
1983-03-14 00:30:00 UTC,2445407.520833,29.6650,-93.4789,0037,15.7000
1983-03-14 01:00:00 UTC,2445407.541667,29.6650,-93.4789,0037,15.7000
1983-03-14 01:30:00 UTC,2445407.562500,29.6650,-93.4789,0037,15.7000
1983-03-14 02:00:00 UTC,2445407.583333,29.6650,-93.4789,0037,15.7000
1983-03-14 02:30:00 UTC,2445407.604167,29.6650,-93.4789,0037,15.7000
1983-03-14 03:00:00 UTC,2445407.625000,29.6650,-93.4789,0037,15.7000
1983-03-14 03:30:00 UTC,2445407.645833,29.6650,-93.4789,0037,15.7000
1983-03-14 04:00:00 UTC,2445407.666667,29.6650,-93.4789,0037,15.7000
1983-03-14 04:30:00 UTC,2445407.687500,29.6650,-93.4789,0037,15.7000
1983-03-14 05:00:00 UTC,2445407.708333,29.6650,-93.4789,0037,15.7000
1983-03-14 05:30:00 UTC,2445407.729167,29.6650,-93.4789,0037,15.7000
1983-03-14 06:00:00 UTC,2445407.750000,29.6650,-93.4789,0037,15.6000
1983-03-14 06:30:00 UTC,2445407.770833,29.6650,-93.4789,0037,15.6000
1983-03-14 07:00:00 UTC,2445407.791667,29.6650,-93.4789,0037,15.6000
1983-03-14 07:30:00 UTC,2445407.812500,29.6650,-93.4789,0037,15.6000
1983-03-14 08:00:00 UTC,2445407.833333,29.6650,-93.4789,0037,15.6000
1983-03-14 08:30:00 UTC,2445407.854167,29.6650,-93.4789,0037,15.6000
1983-03-14 09:00:00 UTC,2445407.875000,29.6650,-93.4789,0037,15.7000
1983-03-14 09:30:00 UTC,2445407.895833,29.6650,-93.4789,0037,15.7000
1983-03-14 10:00:00 UTC,2445407.916667,29.6650,-93.4789,0037,15.7000
1983-03-14 10:30:00 UTC,2445407.937500,29.6650,-93.4789,0037,15.7000
1983-03-14 11:00:00 UTC,2445407.958333,29.6650,-93.4789,0037,15.7000
1983-03-14 11:30:00 UTC,2445407.979167,29.6650,-93.4789,0037,15.7000
1983-03-14 12:00:00 UTC,2445408.000000,29.6650,-93.4789,0037,15.7000
1983-03-14 12:30:00 UTC,2445408.020833,29.6650,-93.4789,0037,15.7000
1983-03-14 13:00:00 UTC,2445408.041667,29.6650,-93.4789,0037,15.6000
1983-03-14 13:30:00 UTC,2445408.062500,29.6650,-93.4789,0037,15.6000
1983-03-14 14:00:00 UTC,2445408.083333,29.6650,-93.4789,0037,15.6000
1983-03-14 14:30:00 UTC,2445408.104167,29.6650,-93.4789,0037,15.6000
1983-03-14 15:00:00 UTC,2445408.125000,29.6650,-93.4789,0037,15.6000
1983-03-14 15:30:00 UTC,2445408.145833,29.6650,-93.4789,0037,15.6000
1983-03-14 16:00:00 UTC,2445408.166667,29.6650,-93.4789,0037,15.6000
1983-03-14 16:30:00 UTC,2445408.187500,29.6650,-93.4789,0037,15.6000
1983-03-14 17:00:00 UTC,2445408.208333,29.6650,-93.4789,0037,15.6000
1983-03-14 17:30:00 UTC,2445408.229167,29.6650,-93.4789,0037,15.6000
1983-03-14 18:00:00 UTC,2445408.250000,29.6650,-93.4789,0037,15.6000
1983-03-14 18:30:00 UTC,2445408.270833,29.6650,-93.4789,0037,15.6000
1983-03-14 19:00:00 UTC,2445408.291667,29.6650,-93.4789,0037,15.7000
1983-03-14 19:30:00 UTC,2445408.312500,29.6650,-93.4789,0037,15.7000
1983-03-14 20:00:00 UTC,2445408.333333,29.6650,-93.4789,0037,15.7000
1983-03-14 20:30:00 UTC,2445408.354167,29.6650,-93.4789,0037,15.7000
1983-03-14 21:00:00 UTC,2445408.375000,29.6650,-93.4789,0037,15.7000
1983-03-14 21:30:00 UTC,2445408.395833,29.6650,-93.4789,0037,15.7000
1983-03-14 22:00:00 UTC,2445408.416667,29.6650,-93.4789,0037,15.8000
1983-03-14 22:30:00 UTC,2445408.437500,29.6650,-93.4789,0037,15.8000
1983-03-14 23:00:00 UTC,2445408.458333,29.6650,-93.4789,0037,15.8000
1983-03-14 23:30:00 UTC,2445408.479167,29.6650,-93.4789,0037,15.8000
1983-03-15 00:00:00 UTC,2445408.500000,29.6650,-93.4789,0037,15.7000
1983-03-15 00:30:00 UTC,2445408.520833,29.6650,-93.4789,0037,15.7000
1983-03-15 01:00:00 UTC,2445408.541667,29.6650,-93.4789,0037,15.7000
1983-03-15 01:30:00 UTC,2445408.562500,29.6650,-93.4789,0037,15.7000
1983-03-15 02:00:00 UTC,2445408.583333,29.6650,-93.4789,0037,15.7000
1983-03-15 02:30:00 UTC,2445408.604167,29.6650,-93.4789,0037,15.8000
1983-03-15 03:00:00 UTC,2445408.625000,29.6650,-93.4789,0037,15.9000
1983-03-15 03:30:00 UTC,2445408.645833,29.6650,-93.4789,0037,16.0000
1983-03-15 04:00:00 UTC,2445408.666667,29.6650,-93.4789,0037,16.1000
1983-03-15 04:30:00 UTC,2445408.687500,29.6650,-93.4789,0037,16.1000
1983-03-15 05:00:00 UTC,2445408.708333,29.6650,-93.4789,0037,16.1000
1983-03-15 05:30:00 UTC,2445408.729167,29.6650,-93.4789,0037,16.0000
1983-03-15 06:00:00 UTC,2445408.750000,29.6650,-93.4789,0037,16.0000
1983-03-15 06:30:00 UTC,2445408.770833,29.6650,-93.4789,0037,16.0000
1983-03-15 07:00:00 UTC,2445408.791667,29.6650,-93.4789,0037,15.9000
1983-03-15 07:30:00 UTC,2445408.812500,29.6650,-93.4789,0037,15.9000
1983-03-15 08:00:00 UTC,2445408.833333,29.6650,-93.4789,0037,15.9000
1983-03-15 08:30:00 UTC,2445408.854167,29.6650,-93.4789,0037,15.8000
1983-03-15 09:00:00 UTC,2445408.875000,29.6650,-93.4789,0037,15.8000
1983-03-15 09:30:00 UTC,2445408.895833,29.6650,-93.4789,0037,15.9000
1983-03-15 10:00:00 UTC,2445408.916667,29.6650,-93.4789,0037,15.8000
1983-03-15 10:30:00 UTC,2445408.937500,29.6650,-93.4789,0037,15.8000
1983-03-15 11:00:00 UTC,2445408.958333,29.6650,-93.4789,0037,15.7000
1983-03-15 11:30:00 UTC,2445408.979167,29.6650,-93.4789,0037,15.7000
1983-03-15 12:00:00 UTC,2445409.000000,29.6650,-93.4789,0037,15.8000
1983-03-15 12:30:00 UTC,2445409.020833,29.6650,-93.4789,0037,15.8000
1983-03-15 13:00:00 UTC,2445409.041667,29.6650,-93.4789,0037,15.8000
1983-03-15 13:30:00 UTC,2445409.062500,29.6650,-93.4789,0037,15.8000
1983-03-15 14:00:00 UTC,2445409.083333,29.6650,-93.4789,0037,15.8000
1983-03-15 14:30:00 UTC,2445409.104167,29.6650,-93.4789,0037,15.7000
1983-03-15 15:00:00 UTC,2445409.125000,29.6650,-93.4789,0037,15.7000
1983-03-15 15:30:00 UTC,2445409.145833,29.6650,-93.4789,0037,15.6000
1983-03-15 16:00:00 UTC,2445409.166667,29.6650,-93.4789,0037,15.6000
1983-03-15 16:30:00 UTC,2445409.187500,29.6650,-93.4789,0037,15.6000
1983-03-15 17:00:00 UTC,2445409.208333,29.6650,-93.4789,0037,15.7000
1983-03-15 17:30:00 UTC,2445409.229167,29.6650,-93.4789,0037,15.7000
1983-03-15 18:00:00 UTC,2445409.250000,29.6650,-93.4789,0037,15.8000
1983-03-15 18:30:00 UTC,2445409.270833,29.6650,-93.4789,0037,15.8000
1983-03-15 19:00:00 UTC,2445409.291667,29.6650,-93.4789,0037,15.9000
1983-03-15 19:30:00 UTC,2445409.312500,29.6650,-93.4789,0037,16.0000
1983-03-15 20:00:00 UTC,2445409.333333,29.6650,-93.4789,0037,16.1000
1983-03-15 20:30:00 UTC,2445409.354167,29.6650,-93.4789,0037,16.2000
1983-03-15 21:00:00 UTC,2445409.375000,29.6650,-93.4789,0037,16.3000
1983-03-15 21:30:00 UTC,2445409.395833,29.6650,-93.4789,0037,16.3000
1983-03-15 22:00:00 UTC,2445409.416667,29.6650,-93.4789,0037,16.3000
1983-03-15 22:30:00 UTC,2445409.437500,29.6650,-93.4789,0037,16.4000
1983-03-15 23:00:00 UTC,2445409.458333,29.6650,-93.4789,0037,16.4000
1983-03-15 23:30:00 UTC,2445409.479167,29.6650,-93.4789,0037,16.4000
1983-03-16 00:00:00 UTC,2445409.500000,29.6650,-93.4789,0037,16.4000
1983-03-16 00:30:00 UTC,2445409.520833,29.6650,-93.4789,0037,16.5000
1983-03-16 01:00:00 UTC,2445409.541667,29.6650,-93.4789,0037,16.6000
1983-03-16 01:30:00 UTC,2445409.562500,29.6650,-93.4789,0037,16.7000
1983-03-16 02:00:00 UTC,2445409.583333,29.6650,-93.4789,0037,16.7000
1983-03-16 02:30:00 UTC,2445409.604167,29.6650,-93.4789,0037,16.8000
1983-03-16 03:00:00 UTC,2445409.625000,29.6650,-93.4789,0037,16.8000
1983-03-16 03:30:00 UTC,2445409.645833,29.6650,-93.4789,0037,16.8000
1983-03-16 04:00:00 UTC,2445409.666667,29.6650,-93.4789,0037,16.8000
1983-03-16 04:30:00 UTC,2445409.687500,29.6650,-93.4789,0037,16.8000
1983-03-16 05:00:00 UTC,2445409.708333,29.6650,-93.4789,0037,16.8000
1983-03-16 05:30:00 UTC,2445409.729167,29.6650,-93.4789,0037,16.8000
1983-03-16 06:00:00 UTC,2445409.750000,29.6650,-93.4789,0037,16.8000
1983-03-16 06:30:00 UTC,2445409.770833,29.6650,-93.4789,0037,16.8000
1983-03-16 07:00:00 UTC,2445409.791667,29.6650,-93.4789,0037,16.7000
1983-03-16 07:30:00 UTC,2445409.812500,29.6650,-93.4789,0037,16.7000
1983-03-16 08:00:00 UTC,2445409.833333,29.6650,-93.4789,0037,16.7000
1983-03-16 08:30:00 UTC,2445409.854167,29.6650,-93.4789,0037,16.7000
1983-03-16 09:00:00 UTC,2445409.875000,29.6650,-93.4789,0037,16.6000
1983-03-16 09:30:00 UTC,2445409.895833,29.6650,-93.4789,0037,16.6000
1983-03-16 10:00:00 UTC,2445409.916667,29.6650,-93.4789,0037,16.6000
1983-03-16 10:30:00 UTC,2445409.937500,29.6650,-93.4789,0037,16.6000
1983-03-16 11:00:00 UTC,2445409.958333,29.6650,-93.4789,0037,16.7000
1983-03-16 11:30:00 UTC,2445409.979167,29.6650,-93.4789,0037,16.7000
1983-03-16 12:00:00 UTC,2445410.000000,29.6650,-93.4789,0037,16.7000
1983-03-16 12:30:00 UTC,2445410.020833,29.6650,-93.4789,0037,16.7000
1983-03-16 13:00:00 UTC,2445410.041667,29.6650,-93.4789,0037,16.8000
1983-03-16 13:30:00 UTC,2445410.062500,29.6650,-93.4789,0037,16.8000
1983-03-16 14:00:00 UTC,2445410.083333,29.6650,-93.4789,0037,16.7000
1983-03-16 14:30:00 UTC,2445410.104167,29.6650,-93.4789,0037,16.7000
1983-03-16 15:00:00 UTC,2445410.125000,29.6650,-93.4789,0037,16.7000
1983-03-16 15:30:00 UTC,2445410.145833,29.6650,-93.4789,0037,16.7000
1983-03-16 16:00:00 UTC,2445410.166667,29.6650,-93.4789,0037,16.6000
1983-03-16 16:30:00 UTC,2445410.187500,29.6650,-93.4789,0037,16.6000
1983-03-16 17:00:00 UTC,2445410.208333,29.6650,-93.4789,0037,16.6000
1983-03-16 17:30:00 UTC,2445410.229167,29.6650,-93.4789,0037,16.6000
1983-03-16 18:00:00 UTC,2445410.250000,29.6650,-93.4789,0037,16.6000
1983-03-16 18:30:00 UTC,2445410.270833,29.6650,-93.4789,0037,16.6000
1983-03-16 19:00:00 UTC,2445410.291667,29.6650,-93.4789,0037,16.5000
1983-03-16 19:30:00 UTC,2445410.312500,29.6650,-93.4789,0037,16.5000
1983-03-16 20:00:00 UTC,2445410.333333,29.6650,-93.4789,0037,16.5000
1983-03-16 20:30:00 UTC,2445410.354167,29.6650,-93.4789,0037,16.4000
1983-03-16 21:00:00 UTC,2445410.375000,29.6650,-93.4789,0037,16.4000
1983-03-16 21:30:00 UTC,2445410.395833,29.6650,-93.4789,0037,16.4000
1983-03-16 22:00:00 UTC,2445410.416667,29.6650,-93.4789,0037,16.5000
1983-03-16 22:30:00 UTC,2445410.437500,29.6650,-93.4789,0037,16.6000
1983-03-16 23:00:00 UTC,2445410.458333,29.6650,-93.4789,0037,16.6000
1983-03-16 23:30:00 UTC,2445410.479167,29.6650,-93.4789,0037,16.6000
1983-03-17 00:00:00 UTC,2445410.500000,29.6650,-93.4789,0037,16.5000
1983-03-17 00:30:00 UTC,2445410.520833,29.6650,-93.4789,0037,16.5000
1983-03-17 01:00:00 UTC,2445410.541667,29.6650,-93.4789,0037,16.4000
1983-03-17 01:30:00 UTC,2445410.562500,29.6650,-93.4789,0037,16.3000
1983-03-17 02:00:00 UTC,2445410.583333,29.6650,-93.4789,0037,16.3000
1983-03-17 02:30:00 UTC,2445410.604167,29.6650,-93.4789,0037,16.3000
1983-03-17 03:00:00 UTC,2445410.625000,29.6650,-93.4789,0037,16.3000
1983-03-17 03:30:00 UTC,2445410.645833,29.6650,-93.4789,0037,16.3000
1983-03-17 04:00:00 UTC,2445410.666667,29.6650,-93.4789,0037,16.3000
1983-03-17 04:30:00 UTC,2445410.687500,29.6650,-93.4789,0037,16.3000
1983-03-17 05:00:00 UTC,2445410.708333,29.6650,-93.4789,0037,16.3000
1983-03-17 05:30:00 UTC,2445410.729167,29.6650,-93.4789,0037,16.3000
1983-03-17 06:00:00 UTC,2445410.750000,29.6650,-93.4789,0037,16.3000
1983-03-17 06:30:00 UTC,2445410.770833,29.6650,-93.4789,0037,16.3000
1983-03-17 07:00:00 UTC,2445410.791667,29.6650,-93.4789,0037,16.3000
1983-03-17 07:30:00 UTC,2445410.812500,29.6650,-93.4789,0037,16.3000
1983-03-17 08:00:00 UTC,2445410.833333,29.6650,-93.4789,0037,16.3000
1983-03-17 08:30:00 UTC,2445410.854167,29.6650,-93.4789,0037,16.3000
1983-03-17 09:00:00 UTC,2445410.875000,29.6650,-93.4789,0037,16.3000
1983-03-17 09:30:00 UTC,2445410.895833,29.6650,-93.4789,0037,16.3000
1983-03-17 10:00:00 UTC,2445410.916667,29.6650,-93.4789,0037,16.3000
1983-03-17 10:30:00 UTC,2445410.937500,29.6650,-93.4789,0037,16.3000
1983-03-17 11:00:00 UTC,2445410.958333,29.6650,-93.4789,0037,16.3000
1983-03-17 11:30:00 UTC,2445410.979167,29.6650,-93.4789,0037,16.3000
1983-03-17 12:00:00 UTC,2445411.000000,29.6650,-93.4789,0037,16.3000
1983-03-17 12:30:00 UTC,2445411.020833,29.6650,-93.4789,0037,16.3000
1983-03-17 13:00:00 UTC,2445411.041667,29.6650,-93.4789,0037,16.3000
1983-03-17 13:30:00 UTC,2445411.062500,29.6650,-93.4789,0037,16.3000
1983-03-17 14:00:00 UTC,2445411.083333,29.6650,-93.4789,0037,16.2000
1983-03-17 14:30:00 UTC,2445411.104167,29.6650,-93.4789,0037,16.2000
1983-03-17 15:00:00 UTC,2445411.125000,29.6650,-93.4789,0037,16.2000
1983-03-17 15:30:00 UTC,2445411.145833,29.6650,-93.4789,0037,16.2000
1983-03-17 16:00:00 UTC,2445411.166667,29.6650,-93.4789,0037,16.2000
1983-03-17 16:30:00 UTC,2445411.187500,29.6650,-93.4789,0037,16.2000
1983-03-17 17:00:00 UTC,2445411.208333,29.6650,-93.4789,0037,16.2000
1983-03-17 17:30:00 UTC,2445411.229167,29.6650,-93.4789,0037,16.2000
1983-03-17 18:00:00 UTC,2445411.250000,29.6650,-93.4789,0037,16.3000
1983-03-17 18:30:00 UTC,2445411.270833,29.6650,-93.4789,0037,16.3000
1983-03-17 19:00:00 UTC,2445411.291667,29.6650,-93.4789,0037,16.3000
1983-03-17 19:30:00 UTC,2445411.312500,29.6650,-93.4789,0037,16.3000
1983-03-17 20:00:00 UTC,2445411.333333,29.6650,-93.4789,0037,16.3000
1983-03-17 20:30:00 UTC,2445411.354167,29.6650,-93.4789,0037,16.3000
1983-03-17 21:00:00 UTC,2445411.375000,29.6650,-93.4789,0037,16.3000
1983-03-17 21:30:00 UTC,2445411.395833,29.6650,-93.4789,0037,16.3000
1983-03-17 22:00:00 UTC,2445411.416667,29.6650,-93.4789,0037,16.3000
1983-03-17 22:30:00 UTC,2445411.437500,29.6650,-93.4789,0037,16.3000
1983-03-17 23:00:00 UTC,2445411.458333,29.6650,-93.4789,0037,16.3000
1983-03-17 23:30:00 UTC,2445411.479167,29.6650,-93.4789,0037,16.3000
1983-03-18 00:00:00 UTC,2445411.500000,29.6650,-93.4789,0037,16.3000
1983-03-18 00:30:00 UTC,2445411.520833,29.6650,-93.4789,0037,16.3000
1983-03-18 01:00:00 UTC,2445411.541667,29.6650,-93.4789,0037,16.3000
1983-03-18 01:30:00 UTC,2445411.562500,29.6650,-93.4789,0037,16.3000
1983-03-18 02:00:00 UTC,2445411.583333,29.6650,-93.4789,0037,16.3000
1983-03-18 02:30:00 UTC,2445411.604167,29.6650,-93.4789,0037,16.3000
1983-03-18 03:00:00 UTC,2445411.625000,29.6650,-93.4789,0037,16.3000
1983-03-18 03:30:00 UTC,2445411.645833,29.6650,-93.4789,0037,16.3000
1983-03-18 04:00:00 UTC,2445411.666667,29.6650,-93.4789,0037,16.2000
1983-03-18 04:30:00 UTC,2445411.687500,29.6650,-93.4789,0037,16.2000
1983-03-18 05:00:00 UTC,2445411.708333,29.6650,-93.4789,0037,16.2000
1983-03-18 05:30:00 UTC,2445411.729167,29.6650,-93.4789,0037,16.2000
1983-03-18 06:00:00 UTC,2445411.750000,29.6650,-93.4789,0037,16.2000
1983-03-18 06:30:00 UTC,2445411.770833,29.6650,-93.4789,0037,16.2000
1983-03-18 07:00:00 UTC,2445411.791667,29.6650,-93.4789,0037,16.1000
1983-03-18 07:30:00 UTC,2445411.812500,29.6650,-93.4789,0037,16.1000
1983-03-18 08:00:00 UTC,2445411.833333,29.6650,-93.4789,0037,16.1000
1983-03-18 08:30:00 UTC,2445411.854167,29.6650,-93.4789,0037,16.1000
1983-03-18 09:00:00 UTC,2445411.875000,29.6650,-93.4789,0037,16.1000
1983-03-18 09:30:00 UTC,2445411.895833,29.6650,-93.4789,0037,16.1000
1983-03-18 10:00:00 UTC,2445411.916667,29.6650,-93.4789,0037,16.1000
1983-03-18 10:30:00 UTC,2445411.937500,29.6650,-93.4789,0037,16.1000
1983-03-18 11:00:00 UTC,2445411.958333,29.6650,-93.4789,0037,16.1000
1983-03-18 11:30:00 UTC,2445411.979167,29.6650,-93.4789,0037,16.0000
1983-03-18 12:00:00 UTC,2445412.000000,29.6650,-93.4789,0037,16.0000
1983-03-18 12:30:00 UTC,2445412.020833,29.6650,-93.4789,0037,16.0000
1983-03-18 13:00:00 UTC,2445412.041667,29.6650,-93.4789,0037,16.0000
1983-03-18 13:30:00 UTC,2445412.062500,29.6650,-93.4789,0037,16.0000
1983-03-18 14:00:00 UTC,2445412.083333,29.6650,-93.4789,0037,16.0000
1983-03-18 14:30:00 UTC,2445412.104167,29.6650,-93.4789,0037,16.0000
1983-03-18 15:00:00 UTC,2445412.125000,29.6650,-93.4789,0037,16.0000
1983-03-18 15:30:00 UTC,2445412.145833,29.6650,-93.4789,0037,16.0000
1983-03-18 16:00:00 UTC,2445412.166667,29.6650,-93.4789,0037,16.0000
1983-03-18 16:30:00 UTC,2445412.187500,29.6650,-93.4789,0037,16.0000
1983-03-18 17:00:00 UTC,2445412.208333,29.6650,-93.4789,0037,16.0000
1983-03-18 17:30:00 UTC,2445412.229167,29.6650,-93.4789,0037,16.0000
1983-03-18 18:00:00 UTC,2445412.250000,29.6650,-93.4789,0037,16.0000
1983-03-18 18:30:00 UTC,2445412.270833,29.6650,-93.4789,0037,16.0000
1983-03-18 19:00:00 UTC,2445412.291667,29.6650,-93.4789,0037,16.0000
1983-03-18 19:30:00 UTC,2445412.312500,29.6650,-93.4789,0037,16.0000
1983-03-18 20:00:00 UTC,2445412.333333,29.6650,-93.4789,0037,16.1000
1983-03-18 20:30:00 UTC,2445412.354167,29.6650,-93.4789,0037,16.2000
1983-03-18 21:00:00 UTC,2445412.375000,29.6650,-93.4789,0037,16.2000
1983-03-18 21:30:00 UTC,2445412.395833,29.6650,-93.4789,0037,16.3000
1983-03-18 22:00:00 UTC,2445412.416667,29.6650,-93.4789,0037,16.3000
1983-03-18 22:30:00 UTC,2445412.437500,29.6650,-93.4789,0037,16.3000